Stations météo

réclame
Mon MeteoGroup
Benavente, Espagne (8056): Température de l'air & dewpoint: 16.06.2018 09:00:00 - 22.06.2018 09:00:00 (CEST)Benavente, Espagne (8056): Vitesse du vent & gusts: 16.06.2018 09:00:00 - 22.06.2018 09:00:00 (CEST)Benavente, Espagne (8056): Direction du vent: 16.06.2018 09:00:00 - 22.06.2018 09:00:00 (CEST)Benavente, Espagne (8056): reduced air pressure: 16.06.2018 09:00:00 - 22.06.2018 09:00:00 (CEST)Benavente, Espagne (8056): visibility: 16.06.2018 09:00:00 - 22.06.2018 09:00:00 (CEST)Benavente, Espagne (8056): Ensoleillement: 16.06.2018 09:00:00 - 22.06.2018 09:00:00 (CEST)Benavente, Espagne (8056): Quantités de précipitations: 16.06.2018 09:00:00 - 22.06.2018 09:00:00 (CEST)
Date & Time tt [°C] td [°C] ff [km/h] ff [knt] fx [km/h] fx [knt] dd ppp [hPa] vv [km] sd [min] rr [mm]
22.06.2018 09:00:00 18,1 14,8 10 6 28 15 ENE 1019,4 20 0 0,0
22.06.2018 08:00:00 17,1 14,1 9 5 24 13 NE 1019,1 20 0 -
22.06.2018 07:00:00 16,3 13,9 5 3 12 6 NNE 1019,3 20 0 0,0
22.06.2018 06:00:00 16,6 14,2 3 1 14 8 NW 1019,3 20 0 0,0
22.06.2018 05:00:00 16,8 14,4 7 4 15 8 NE 1019,1 20 0 0,0
22.06.2018 04:00:00 17,7 14,4 6 3 13 7 N 1018,9 20 0 0,0
22.06.2018 03:00:00 18,7 13,9 4 2 21 12 NNE 1019,0 20 0 0,0
22.06.2018 02:00:00 19,1 14,1 7 4 16 9 NNE 1019,3 20 0 -
22.06.2018 01:00:00 19,8 13,9 8 4 23 13 NE 1018,9 20 0 0,0
22.06.2018 00:00:00 20,8 14,2 11 6 27 15 NE 1018,1 20 0 0,0
21.06.2018 23:00:00 22,6 14,1 15 8 29 16 NNE 1017,2 20 0 0,0
21.06.2018 22:00:00 24,6 15,3 7 4 25 13 ENE 1015,7 20 0 0,0
21.06.2018 21:00:00 27,1 17,5 3 2 5 3 NE 1013,9 20 0 0,0
21.06.2018 20:00:00 28,9 15,4 3 2 10 6 NNW 1013,1 20 0 -
21.06.2018 19:00:00 30,0 10,5 5 3 14 8 SSW 1013,2 20 3 0,0
21.06.2018 18:00:00 29,8 11,8 6 3 13 7 SSE 1013,3 20 1 0,0
21.06.2018 17:00:00 30,0 12,4 4 2 14 8 SE 1013,6 20 21 0,0
21.06.2018 16:00:00 29,6 13,4 8 4 19 10 ESE 1014,0 20 25 0,0
21.06.2018 15:00:00 29,6 13,8 8 4 23 12 NNE 1014,4 15 52 0,0
21.06.2018 14:00:00 28,1 12,8 9 5 22 12 NE 1015,1 20 39 -
21.06.2018 13:00:00 26,8 13,9 9 5 23 12 ENE 1016,1 20 50 0,0
21.06.2018 12:00:00 25,4 15,7 10 5 21 11 NE 1016,5 20 53 0,0
21.06.2018 11:00:00 24,4 13,9 8 4 19 10 ENE 1016,9 20 60 0,0
21.06.2018 10:00:00 22,3 15,2 7 4 14 8 E 1017,3 20 60 0,0
21.06.2018 09:00:00 20,8 15,3 6 3 13 7 N 1017,2 20 60 0,0
21.06.2018 08:00:00 18,9 14,8 7 4 11 6 N 1017,2 20 41 -
21.06.2018 07:00:00 17,5 14,2 4 2 14 7 N 1017,8 20 0 0,0
21.06.2018 06:00:00 17,4 14,1 6 3 16 9 N 1017,7 20 0 0,0
21.06.2018 05:00:00 18,4 14,7 8 5 29 15 NNE 1017,9 20 0 0,0
21.06.2018 04:00:00 19,9 13,4 16 9 36 19 N 1017,2 20 0 0,0
21.06.2018 03:00:00 19,3 13,5 17 9 41 22 NNW 1018,1 20 0 0,2
21.06.2018 02:00:00 17,9 13,2 20 11 46 25 WNW 1019,5 20 0 -
21.06.2018 01:00:00 19,3 15,3 17 9 53 29 WNW 1018,1 20 0 19,0
21.06.2018 00:00:00 20,4 16,6 13 7 - - SSW 1018,4 8 - -
20.06.2018 23:00:00 23,9 14,0 12 7 34 19 N 1016,2 15 0 0,0
20.06.2018 22:00:00 25,0 11,9 17 9 44 24 NNW 1014,7 20 0 0,0
20.06.2018 21:00:00 27,4 10,5 15 8 32 18 NNW 1013,3 20 8 0,0
20.06.2018 20:00:00 30,7 10,6 11 6 22 12 NNW 1011,9 20 22 -
20.06.2018 19:00:00 31,3 8,9 6 3 16 9 ENE 1011,7 20 24 0,0
20.06.2018 18:00:00 32,0 9,6 7 4 16 9 E 1011,8 20 60 0,0
20.06.2018 17:00:00 31,4 10,2 5 3 17 9 NE 1011,9 20 43 0,0
20.06.2018 16:00:00 32,3 10,3 5 3 17 9 SSE 1012,3 20 60 0,0
20.06.2018 15:00:00 31,1 11,0 7 4 17 9 S 1013,1 20 60 0,0
20.06.2018 14:00:00 30,1 11,1 5 3 14 8 ESE 1013,8 20 60 -
20.06.2018 13:00:00 28,5 11,1 4 2 16 8 SSE 1014,8 20 60 0,0
20.06.2018 12:00:00 26,4 12,8 8 4 25 14 ENE 1015,6 20 60 0,0
20.06.2018 11:00:00 24,8 13,4 8 4 16 8 NE 1016,1 20 60 0,0
20.06.2018 10:00:00 22,1 13,8 6 3 15 8 N 1017,1 20 60 0,0
20.06.2018 09:00:00 19,8 12,7 7 4 13 7 NNE 1017,8 20 60 0,0
20.06.2018 08:00:00 17,1 11,8 5 3 10 6 N 1018,2 20 55 -
20.06.2018 07:00:00 15,3 11,1 5 3 11 6 N 1018,4 20 0 0,0
20.06.2018 06:00:00 15,3 11,3 4 2 9 5 N 1018,2 20 0 0,0
20.06.2018 05:00:00 16,4 12,0 4 2 13 7 N 1017,9 20 0 0,0
20.06.2018 04:00:00 17,1 12,4 6 4 11 6 NNW 1017,6 20 0 0,0
20.06.2018 03:00:00 18,0 12,4 6 3 10 6 NNW 1017,6 20 0 0,0
20.06.2018 02:00:00 19,2 12,4 5 3 10 5 N 1017,2 20 0 -
20.06.2018 01:00:00 19,7 12,4 5 3 9 5 N 1017,1 20 0 0,0
20.06.2018 00:00:00 20,7 11,6 5 3 13 7 N 1017,0 20 0 0,0
19.06.2018 23:00:00 22,4 11,8 4 2 16 9 N 1016,2 20 0 0,0
19.06.2018 22:00:00 25,2 11,0 4 2 8 5 WNW 1014,8 20 22 0,0
19.06.2018 21:00:00 28,6 8,3 6 3 10 6 WNW 1013,8 20 55 0,0
19.06.2018 20:00:00 29,8 7,7 5 3 14 8 W 1013,6 20 32 -
19.06.2018 19:00:00 29,2 9,3 4 2 13 7 N 1014,0 20 32 0,0
19.06.2018 18:00:00 28,4 9,2 5 3 16 9 ESE 1014,6 20 60 0,0
19.06.2018 17:00:00 28,3 9,6 5 3 19 10 NW 1015,2 20 60 0,0
19.06.2018 16:00:00 27,3 9,6 7 4 16 9 ENE 1015,9 20 60 0,0
19.06.2018 15:00:00 26,5 9,8 4 2 19 10 NNE 1016,4 20 60 0,0
19.06.2018 14:00:00 24,7 9,8 11 6 24 13 NE 1017,6 20 60 -
19.06.2018 13:00:00 23,0 9,4 12 7 31 17 ENE 1018,5 20 60 0,0
19.06.2018 12:00:00 21,7 9,9 13 7 29 16 E 1019,6 20 60 0,0
19.06.2018 11:00:00 20,1 11,0 13 7 27 15 ENE 1020,7 20 60 0,0
19.06.2018 10:00:00 17,8 11,6 14 8 29 15 ENE 1021,7 2,6 59 0,0
19.06.2018 09:00:00 15,8 11,3 13 7 29 16 ENE 1022,6 20 59 0,0
19.06.2018 08:00:00 14,2 11,2 12 7 27 15 NE 1023,2 20 7 -
19.06.2018 07:00:00 13,2 10,8 9 5 19 11 ENE 1023,3 20 0 0,0
19.06.2018 06:00:00 13,1 10,6 7 4 19 10 NNE 1023,2 20 0 0,0
19.06.2018 05:00:00 13,6 10,4 8 4 16 8 NE 1023,1 20 0 0,0
19.06.2018 04:00:00 14,0 10,2 4 2 16 9 N 1023,0 20 0 0,0
19.06.2018 03:00:00 14,9 10,5 7 4 19 10 NE 1022,9 20 0 0,0
19.06.2018 02:00:00 15,4 10,5 6 4 16 8 NE 1023,2 20 0 -
19.06.2018 01:00:00 16,1 10,9 8 4 24 13 NE 1023,4 20 0 0,0
19.06.2018 00:00:00 17,2 11,0 13 7 27 14 E 1023,2 20 0 0,0
18.06.2018 23:00:00 19,1 11,1 12 6 27 15 ENE 1022,2 20 0 0,0
18.06.2018 22:00:00 22,1 11,8 12 6 31 17 E 1020,5 20 20 0,0
18.06.2018 21:00:00 25,8 12,6 13 7 27 14 E 1018,8 20 53 0,0
18.06.2018 20:00:00 28,3 10,5 10 5 22 12 E 1018,1 20 36 -
18.06.2018 19:00:00 29,2 7,7 4 2 24 13 ENE 1018,0 20 31 0,0
18.06.2018 18:00:00 28,9 7,4 8 5 19 10 NNE 1018,5 20 60 0,0
18.06.2018 17:00:00 28,6 6,7 7 4 27 15 ENE 1019,3 6 60 0,0
18.06.2018 16:00:00 28,2 7,4 8 4 22 12 ESE 1019,7 20 60 0,0
18.06.2018 15:00:00 27,2 8,1 6 4 19 10 E 1020,6 20 60 0,0
18.06.2018 14:00:00 26,4 7,4 4 2 17 9 E 1021,2 20 60 -
18.06.2018 13:00:00 24,4 7,1 8 4 21 11 NE 1022,0 20 60 0,0
18.06.2018 12:00:00 22,9 8,5 7 4 19 10 E 1022,9 20 60 0,0
18.06.2018 11:00:00 21,3 8,3 6 4 18 10 NE 1023,4 20 60 0,0
18.06.2018 10:00:00 19,1 7,8 8 5 22 12 ENE 1024,3 20 60 0,0
18.06.2018 09:00:00 16,6 7,6 7 4 13 7 NE 1024,9 20 60 0,0
18.06.2018 08:00:00 15,1 7,8 6 3 13 7 NNE 1025,0 20 55 -
18.06.2018 07:00:00 12,2 5,8 4 2 8 4 N 1025,8 20 0 0,0
18.06.2018 06:00:00 12,8 4,8 4 2 8 4 N 1025,7 20 0 0,0
18.06.2018 05:00:00 13,5 5,6 3 2 8 5 NNW 1025,6 20 0 0,0
18.06.2018 04:00:00 14,4 6,2 3 2 13 7 NNW 1025,4 20 0 0,0
18.06.2018 03:00:00 15,8 5,5 8 5 14 8 NE 1025,1 20 0 0,0
18.06.2018 02:00:00 16,3 5,6 6 4 19 10 NE 1024,8 20 0 -
18.06.2018 01:00:00 17,6 6,1 8 5 19 10 ENE 1024,5 20 0 0,0
18.06.2018 00:00:00 18,6 7,7 5 3 13 7 NNE 1024,0 20 0 0,0
17.06.2018 23:00:00 20,7 8,7 4 2 17 9 ENE 1022,6 20 0 0,0
17.06.2018 22:00:00 23,0 9,4 4 2 14 7 NNE 1021,1 20 21 0,0
17.06.2018 21:00:00 26,7 6,7 5 3 11 6 ESE 1019,4 20 53 0,0
17.06.2018 20:00:00 27,7 5,9 5 3 17 9 E 1018,8 20 36 -
17.06.2018 19:00:00 27,9 6,1 7 4 17 9 E 1018,5 20 31 0,0
17.06.2018 18:00:00 28,3 5,8 8 5 18 10 ESE 1018,6 20 60 0,0
17.06.2018 17:00:00 27,9 5,5 6 3 14 8 NNE 1018,8 20 60 0,0
17.06.2018 16:00:00 27,1 4,8 5 3 17 9 SSE 1019,4 20 60 0,0
17.06.2018 15:00:00 25,8 -2,7 9 5 21 12 ENE 1020,1 20 60 0,0
17.06.2018 14:00:00 24,7 0,2 10 5 19 10 NE 1020,7 20 60 -
17.06.2018 13:00:00 23,3 9,3 6 4 17 9 N 1021,0 20 60 0,0
17.06.2018 12:00:00 21,0 10,8 9 5 21 12 ENE 1021,7 20 60 0,0
17.06.2018 11:00:00 19,0 11,1 9 5 18 10 ENE 1022,2 20 60 0,0
17.06.2018 10:00:00 16,9 10,8 3 2 10 5 SSE 1022,4 20 60 0,0
17.06.2018 09:00:00 15,6 9,9 5 3 14 7 NE 1022,7 20 60 0,0
17.06.2018 08:00:00 13,8 9,8 6 3 11 6 N 1023,0 20 43 -
17.06.2018 07:00:00 11,5 8,9 3 1 10 5 NNW 1023,2 20 0 0,0
17.06.2018 06:00:00 11,8 9,0 6 3 12 6 N 1022,9 20 0 0,0
17.06.2018 05:00:00 12,3 8,8 7 4 16 9 NNE 1022,4 20 0 0,0
17.06.2018 04:00:00 12,7 8,9 6 3 18 10 NNE 1022,4 20 0 0,0
17.06.2018 03:00:00 13,2 7,8 6 3 19 10 ENE 1021,7 20 0 0,0
17.06.2018 02:00:00 14,6 7,4 9 5 23 12 ENE 1021,5 20 0 -
17.06.2018 01:00:00 16,1 5,9 13 7 31 17 NE 1020,7 20 0 0,0
17.06.2018 00:00:00 17,4 3,6 10 5 26 14 NE 1019,9 20 0 0,0
16.06.2018 23:00:00 19,4 4,6 6 4 32 17 E 1018,2 20 0 0,0
16.06.2018 22:00:00 22,4 8,5 3 2 18 10 E 1015,8 20 12 0,0
16.06.2018 21:00:00 26,4 5,3 4 2 9 5 E 1014,1 20 50 0,0
16.06.2018 20:00:00 27,3 0,9 6 3 14 7 ENE 1013,8 20 35 -
16.06.2018 19:00:00 27,7 1,9 8 4 14 8 NNE 1013,4 20 29 0,0
16.06.2018 18:00:00 27,7 0,4 8 4 18 10 ENE 1013,8 20 60 0,0
16.06.2018 17:00:00 27,2 3,6 8 4 18 10 E 1013,9 20 60 0,0
16.06.2018 16:00:00 26,4 4,1 8 4 22 12 E 1014,5 20 60 0,0
16.06.2018 15:00:00 25,8 5,3 5 3 16 9 NNW 1014,9 20 60 0,0
16.06.2018 14:00:00 24,0 9,2 6 3 18 10 SE 1015,8 20 60 -
16.06.2018 13:00:00 22,6 11,3 4 2 21 11 ESE 1016,4 20 60 0,0
16.06.2018 12:00:00 20,4 11,3 5 3 14 8 E 1017,4 20 60 0,0
16.06.2018 11:00:00 18,3 11,3 6 3 16 9 ENE 1018,1 20 60 0,0
16.06.2018 10:00:00 16,9 10,8 5 3 16 9 ESE 1018,2 20 59 0,0
16.06.2018 09:00:00 16,1 10,2 6 4 14 8 NE 1018,2 20 60 0,0

tt = Température de l'air
td = dewpoint
ff = Vitesse du vent
fx = gusts
dd = Direction du vent
ppp = reduced air pressure
vv = visibility
sd = Ensoleillement
rr = Quantités de précipitations

stations d'obs. à proximité